Regional Weather Roundup
Issued by NWS

Home | Current Version | Previous Version | Text Only | Print | Product List | Glossary On
Versions: 1 2 3 4 5 6 7 8 9 10 11 12 13 14 15 16 17 18 19 20 21 22 23 24 25 26 27 28 29 30 31 32 33 34 35 36 37 38 39 40 41 42 43 44 45 46 47 48 49 50
000
ASUS43 KBIS 272310
RWRND

NORTH DAKOTA REGIONAL WEATHER ROUNDUP
NATIONAL WEATHER SERVICE BISMARCK ND
600 PM CDT TUE JUN 27 2017

NOTE: "FAIR" INDICATES FEW OR NO CLOUDS BELOW 12,000 FEET WITH NO
SIGNIFICANT WEATHER AND/OR OBSTRUCTIONS TO VISIBILITY.


NDZ001>003-009>011-017-280000-
NORTHWEST NORTH DAKOTA

CITY           SKY/WX    TMP DP  RH WIND       PRES   REMARKS
WILLISTON      CLOUDY    82  50  32 N20G31    29.56R
MINOT          CLOUDY    85  57  38 SE12      29.52F
MINOT AFB      CLOUDY    83  58  42 SW5       29.51F
$$

NDZ018>021-031>035-040>046-280000-
SOUTHWEST NORTH DAKOTA

CITY           SKY/WX    TMP DP  RH WIND       PRES   REMARKS
BISMARCK       PTSUNNY   88  62  41 S16       29.51F
DICKINSON      CLOUDY    85  46  25 NW13      29.53R
GARRISON         N/A     80  60  50 SE6       29.51F
HETTINGER ARPT CLOUDY    89  45  21 W21       29.55F
$$

NDZ004>008-012>016-024-026-027-054-280000-
NORTHEAST NORTH DAKOTA

CITY           SKY/WX    TMP DP  RH WIND       PRES   REMARKS
GRAND FORKS    MOSUNNY   79  49  34 S18G28    29.67F
GRND FRKS AFB  SUNNY     78  48  34 S22G30    29.67F
DEVILS LAKE    CLOUDY    80  51  36 S16G29    29.62F
$$

NDZ022-023-025-028>030-036>039-047>053-280000-
SOUTHEAST NORTH DAKOTA

CITY           SKY/WX    TMP DP  RH WIND       PRES   REMARKS
FARGO          PTSUNNY   77  47  34 S18G29    29.69F
JAMESTOWN      MOSUNNY   83  49  30 S22G31    29.60F
$$




USA.gov is the U.S. government's official web portal to all federal, state and local government web resources and services.